EW1645 Weather Reports


Display with metric or nautical units.
time (UTC)temp
F
wind
direction
speed
MPH
gust
MPH
rain 1hr
in
rain 24hr
in
rain mn
in
humidity
%
barometer
mb
20260510175506 81 254 2.0 5.0 0.00 0.00 0.00 39 1015.8
20260510175005 81 337 2.0 5.0 0.00 0.00 0.00 38 1015.8
20260510174506 81 288 4.0 12.0 0.00 0.00 0.00 38 1015.9
20260510174006 80 335 1.0 3.0 0.00 0.00 0.00 41 1015.9
20260510173506 80 199 3.0 9.0 0.00 0.00 0.00 39 1016.2
20260510173006 79 270 1.0 8.0 0.00 0.00 0.00 41 1016.2
20260510172507 79 300 4.0 10.0 0.00 0.00 0.00 40 1016.1
20260510172005 80 0 1.0 3.0 0.00 0.00 0.00 40 1016.1
20260510171505 79 109 2.0 3.0 0.00 0.00 0.00 42 1016.2
20260510171005 78 120 1.0 5.0 0.00 0.00 0.00 44 1016.3
20260510170505 77 314 1.0 3.0 0.00 0.00 0.00 45 1016.3
20260510165005 76 165 1.0 3.0 0.00 0.00 0.00 46 1016.3
20260510164506 76 261 0.0 6.0 0.00 0.00 0.00 46 1016.4
20260510164005 76 326 2.0 6.0 0.00 0.00 0.00 45 1016.4
20260510163005 75 246 1.0 5.0 0.00 0.00 0.00 46 1016.4
20260510162505 75 292 2.0 5.0 0.00 0.00 0.00 46 1016.5
20260510162005 75 252 3.0 8.0 0.00 0.00 0.00 45 1016.6
20260510161505 75 252 1.0 6.0 0.00 0.00 0.00 45 1016.6
20260510161006 75 264 3.0 7.0 0.00 0.00 0.00 45 1016.6
20260510160505 75 274 2.0 7.0 0.00 0.00 0.00 46 1016.6
20260510160005 75 253 5.0 12.0 0.00 0.00 0.00 45 1016.7
20260510155005 75 161 2.0 6.0 0.00 0.00 0.00 45 1016.7
20260510154507 75 293 1.0 3.0 0.00 0.00 0.00 49 1016.7
20260510154005 74 201 3.0 6.0 0.00 0.00 0.00 46 1016.8
20260510153506 74 258 2.0 5.0 0.00 0.00 0.00 46 1016.8
20260510153005 74 204 2.0 3.0 0.00 0.00 0.00 48 1016.8
20260510152005 73 261 2.0 5.0 0.00 0.00 0.00 49 1016.7
20260510150506 72 226 1.0 3.0 0.00 0.00 0.00 50 1016.8
20260510150005 72 244 2.0 10.0 0.00 0.00 0.00 50 1016.8
20260510145505 72 213 5.0 12.0 0.00 0.00 0.00 48 1016.9
20260510145005 72 230 1.0 3.0 0.00 0.00 0.00 51 1016.7
20260510144005 71 262 2.0 3.0 0.00 0.00 0.00 52 1016.8
20260510143505 71 260 1.0 7.0 0.00 0.00 0.00 53 1016.8
20260510143005 71 248 4.0 9.0 0.00 0.00 0.00 53 1016.9
20260510142505 70 146 3.0 8.0 0.00 0.00 0.00 51 1016.8
20260510142005 70 215 1.0 5.0 0.00 0.00 0.00 53 1016.7
20260510141505 70 276 1.0 2.0 0.00 0.00 0.00 54 1016.7
20260510141005 70 126 1.0 3.0 0.00 0.00 0.00 54 1016.6
20260510140505 69 250 1.0 7.0 0.00 0.00 0.00 55 1016.7
20260510140005 69 241 1.0 8.0 0.00 0.00 0.00 56 1016.8
20260510135505 69 244 1.0 3.0 0.00 0.00 0.00 56 1016.9
20260510135005 68 155 1.0 7.0 0.00 0.00 0.00 56 1016.9
20260510134505 67 233 2.0 6.0 0.00 0.00 0.00 59 1016.8
20260510134005 66 267 2.0 3.0 0.00 0.00 0.00 59 1016.8
20260510133505 65 348 1.0 6.0 0.00 0.00 0.00 64 1016.8
20260510132506 63 126 0.0 1.0 0.00 0.00 0.00 72 1016.9
20260510132005 62 237 0.0 1.0 0.00 0.00 0.00 75 1016.8
20260510131505 61 240 0.0 1.0 0.00 0.00 0.00 76 1016.8
20260510131005 61 240 0.0 1.0 0.00 0.00 0.00 76 1016.8
20260510130505 60 240 0.0 0.0 0.00 0.00 0.00 78 1016.8
20260510130005 60 240 0.0 1.0 0.00 0.00 0.00 78 1016.7
20260510125505 59 240 1.0 1.0 0.00 0.00 0.00 80 1016.6
20260510125005 58 247 0.0 0.0 0.00 0.00 0.00 82 1016.6
20260510124505 57 246 0.0 0.0 0.00 0.00 0.00 84 1016.6
20260510124005 56 246 0.0 0.0 0.00 0.00 0.00 85 1016.6
20260510123505 56 248 0.0 0.0 0.00 0.00 0.00 87 1016.5
20260510123004 55 248 0.0 0.0 0.00 0.00 0.00 88 1016.4
20260510122005 53 248 0.0 0.0 0.00 0.00 0.00 89 1016.4
20260510121505 53 248 0.0 0.0 0.00 0.00 0.00 89 1016.4
20260510121005 52 248 0.0 1.0 0.00 0.00 0.00 90 1016.4
20260510120505 52 248 0.0 1.0 0.00 0.00 0.00 91 1016.5
20260510120005 51 248 0.0 1.0 0.00 0.00 0.00 91 1016.4
20260510115004 50 248 0.0 1.0 0.00 0.00 0.00 93 1016.3
20260510114505 50 248 0.0 1.0 0.00 0.00 0.00 93 1016.3
20260510114005 49 100 0.0 0.0 0.00 0.00 0.00 94 1016.1
20260510113505 48 100 0.0 0.0 0.00 0.00 0.00 94 1016.1
20260510112505 48 100 0.0 0.0 0.00 0.00 0.00 93 1016.0
20260510112005 48 100 0.0 0.0 0.00 0.00 0.00 93 1016.0
20260510111504 47 99 0.0 0.0 0.00 0.00 0.00 93 1015.8
20260510111005 47 99 0.0 0.0 0.00 0.00 0.00 93 1015.7
20260510110505 47 99 0.0 0.0 0.00 0.00 0.00 93 1015.7
20260510110005 47 99 0.0 0.0 0.00 0.00 0.00 93 1015.6
20260510105504 47 99 0.0 0.0 0.00 0.00 0.00 93 1015.5
20260510105004 47 99 0.0 0.0 0.00 0.00 0.00 93 1015.4
20260510104505 47 82 1.0 3.0 0.00 0.00 0.00 93 1015.4
20260510104006 47 313 1.0 3.0 0.00 0.00 0.00 93 1015.4
20260510103505 47 304 1.0 3.0 0.00 0.00 0.00 93 1015.3
20260510103004 47 53 1.0 3.0 0.00 0.00 0.00 92 1015.2
20260510102504 47 121 0.0 0.0 0.00 0.00 0.00 92 1015.1
20260510102004 47 285 0.0 0.0 0.00 0.00 0.00 92 1015.0
20260510101504 47 259 0.0 0.0 0.00 0.00 0.00 92 1015.0
20260510101005 47 218 0.0 0.0 0.00 0.00 0.00 91 1014.9
20260510100505 48 327 0.0 3.0 0.00 0.00 0.00 91 1014.8
20260510100005 48 264 0.0 2.0 0.00 0.00 0.00 91 1014.8
20260510095004 48 245 1.0 2.0 0.00 0.00 0.00 90 1014.8
20260510094504 48 155 0.0 1.0 0.00 0.00 0.00 90 1014.8
20260510094004 48 155 0.0 1.0 0.00 0.00 0.00 90 1014.8
20260510093505 48 144 1.0 2.0 0.00 0.00 0.00 90 1014.7
20260510093004 48 205 0.0 1.0 0.00 0.00 0.00 90 1014.7
20260510092505 49 131 0.0 1.0 0.00 0.00 0.00 89 1014.6
20260510092004 49 256 1.0 3.0 0.00 0.00 0.00 89 1014.5
20260510091505 49 298 0.0 1.0 0.00 0.00 0.00 88 1014.5
20260510091004 50 265 0.0 1.0 0.00 0.00 0.00 88 1014.4
20260510090004 49 84 1.0 3.0 0.00 0.00 0.00 89 1014.2
20260510085505 49 96 2.0 5.0 0.00 0.00 0.00 89 1014.2
20260510085005 49 329 1.0 2.0 0.00 0.00 0.00 89 1014.3
20260510083004 49 107 1.0 3.0 0.00 0.00 0.00 90 1014.1
20260510082504 49 109 1.0 3.0 0.00 0.00 0.00 89 1014.2
20260510082006 49 259 0.0 3.0 0.00 0.00 0.00 89 1014.2
20260510081504 49 91 1.0 1.0 0.00 0.00 0.00 89 1014.2
20260510081005 49 86 0.0 2.0 0.00 0.00 0.00 89 1014.2
20260510080504 49 260 1.0 3.0 0.00 0.00 0.00 89 1014.1
20260510080004 49 37 0.0 3.0 0.00 0.00 0.00 89 1013.9
20260510075504 49 90 1.0 1.0 0.00 0.00 0.00 89 1013.8
20260510075004 49 280 1.0 2.0 0.00 0.00 0.00 89 1013.8
20260510074004 49 253 0.0 0.0 0.00 0.00 0.00 89 1013.6
20260510072504 50 257 0.0 0.0 0.00 0.00 0.00 87 1013.7
20260510072004 50 16 0.0 0.0 0.00 0.00 0.00 86 1013.7
20260510071504 50 58 0.0 0.0 0.00 0.00 0.00 86 1013.7
20260510071004 51 118 0.0 0.0 0.00 0.00 0.00 85 1013.7
20260510070504 51 193 0.0 0.0 0.00 0.00 0.00 85 1013.6
20260510070004 51 193 0.0 0.0 0.00 0.00 0.00 84 1013.6
20260510065503 51 193 0.0 0.0 0.00 0.00 0.00 84 1013.6
20260510065004 51 193 0.0 0.0 0.00 0.00 0.00 84 1013.5
20260510064504 51 193 0.0 0.0 0.00 0.00 0.00 84 1013.6
20260510064005 52 193 0.0 0.0 0.00 0.00 0.00 83 1013.6
20260510063505 52 193 0.0 0.0 0.00 0.00 0.00 83 1013.6
20260510063004 52 193 0.0 0.0 0.00 0.00 0.00 83 1013.7
20260510061504 52 186 0.0 0.0 0.00 0.00 0.00 82 1013.8
20260510061004 53 186 0.0 0.0 0.00 0.00 0.00 82 1013.8
20260510060504 53 187 0.0 0.0 0.00 0.00 0.00 81 1013.8
20260510060004 53 169 0.0 0.0 0.00 0.00 0.00 80 1013.8
20260510055504 54 169 0.0 0.0 0.00 0.00 0.00 80 1013.9
20260510054504 54 177 0.0 0.0 0.00 0.00 0.00 79 1013.8
20260510054004 54 221 0.0 0.0 0.00 0.00 0.00 79 1013.9
20260510053505 54 146 0.0 0.0 0.00 0.00 0.00 78 1013.8
20260510053004 54 146 0.0 0.0 0.00 0.00 0.00 78 1013.7
20260510052505 54 146 0.0 0.0 0.00 0.00 0.00 78 1013.8
20260510051504 55 143 0.0 0.0 0.00 0.00 0.00 77 1013.8
20260510050504 55 143 0.0 0.0 0.00 0.00 0.00 77 1013.9
20260510045529 55 143 0.0 0.0 0.00 0.00 0.00 77 1013.9
20260510045028 55 143 0.0 1.0 0.00 0.00 0.00 76 1013.9
20260510044528 55 141 0.0 1.0 0.00 0.00 0.00 77 1013.8
20260510043529 55 172 0.0 0.0 0.00 0.00 0.00 78 1013.7
20260510041529 55 210 0.0 0.0 0.00 0.00 0.00 77 1013.8
20260510041028 55 210 0.0 0.0 0.00 0.00 0.00 76 1013.7
20260510040529 55 210 0.0 0.0 0.00 0.00 0.00 76 1013.7
20260510035528 56 209 0.0 0.0 0.00 0.00 0.00 74 1013.8
20260510035029 56 209 0.0 0.0 0.00 0.00 0.00 73 1013.7
20260510034528 56 209 0.0 0.0 0.00 0.00 0.00 74 1013.7
20260510034029 56 209 0.0 0.0 0.00 0.00 0.00 74 1013.7
20260510033529 56 210 0.0 0.0 0.00 0.00 0.00 74 1013.7
20260510033029 56 214 0.0 0.0 0.00 0.00 0.00 73 1013.7
20260510032028 57 215 0.0 0.0 0.00 0.00 0.00 71 1013.5
20260510031528 57 215 0.0 0.0 0.00 0.00 0.00 71 1013.4
20260510030529 58 214 0.0 0.0 0.00 0.00 0.00 69 1013.4
20260510030028 58 214 0.0 0.0 0.00 0.00 0.00 68 1013.5
20260510025529 58 214 0.0 0.0 0.00 0.00 0.00 67 1013.4
20260510023030 60 214 0.0 0.0 0.00 0.00 0.00 64 1013.2
20260510022528 61 214 0.0 1.0 0.00 0.00 0.00 63 1013.2
20260510022028 62 237 1.0 1.0 0.00 0.00 0.00 61 1013.1
20260510021528 62 263 0.0 1.0 0.00 0.00 0.00 59 1012.9
20260510021028 62 280 1.0 3.0 0.00 0.00 0.00 60 1012.9
20260510020028 63 231 1.0 2.0 0.00 0.00 0.00 58 1012.7
20260510015529 63 227 1.0 3.0 0.00 0.00 0.00 57 1012.6
20260510015028 64 260 1.0 3.0 0.00 0.00 0.00 57 1012.5
20260510014528 63 243 2.0 3.0 0.00 0.00 0.00 56 1012.6
20260510013528 63 238 1.0 3.0 0.00 0.00 0.00 57 1012.3
20260510012028 63 240 0.0 0.0 0.00 0.00 0.00 56 1011.9
20260510011528 63 240 0.0 0.0 0.00 0.00 0.00 57 1011.9
20260510011028 63 240 0.0 0.0 0.00 0.00 0.00 55 1011.9
20260510010528 63 255 0.0 0.0 0.00 0.00 0.00 55 1011.9
20260510010029 63 255 0.0 0.0 0.00 0.00 0.00 55 1011.7
20260510005528 64 255 0.0 0.0 0.00 0.00 0.00 55 1011.7
20260510005028 65 255 0.0 0.0 0.00 0.00 0.00 55 1011.7
20260510004529 66 255 0.0 0.0 0.00 0.00 0.00 54 1011.6
20260510004028 66 257 0.0 3.0 0.00 0.00 0.00 52 1011.5
20260510003528 66 245 0.0 3.0 0.00 0.00 0.00 53 1011.5
20260510003028 67 236 0.0 0.0 0.00 0.00 0.00 52 1011.6
20260510002529 68 238 0.0 0.0 0.00 0.00 0.00 50 1011.6
20260510002028 68 238 0.0 0.0 0.00 0.00 0.00 48 1011.5
20260510001528 69 238 0.0 0.0 0.00 0.00 0.00 47 1011.5
20260510001029 69 238 0.0 0.0 0.00 0.00 0.00 46 1011.3
20260510000528 70 238 0.0 2.0 0.00 0.00 0.00 45 1011.2
20260510000028 70 223 0.0 1.0 0.00 0.00 0.00 45 1011.1
20260509235527 70 224 1.0 6.0 0.00 0.00 0.00 44 1011.0
20260509234527 71 219 0.0 2.0 0.00 0.00 0.00 44 1010.8
20260509234028 71 239 3.0 7.0 0.00 0.00 0.00 43 1010.8
20260509233027 72 274 1.0 7.0 0.00 0.00 0.00 43 1010.6
20260509232528 73 229 2.0 5.0 0.00 0.00 0.00 42 1010.6
20260509232027 73 294 1.0 8.0 0.00 0.00 0.00 41 1010.6
20260509231528 74 205 2.0 5.0 0.00 0.00 0.00 40 1010.6
20260509231028 74 251 3.0 8.0 0.00 0.00 0.00 40 1010.5
20260509230528 74 239 2.0 8.0 0.00 0.00 0.00 40 1010.5
20260509230028 73 281 3.0 9.0 0.00 0.00 0.00 40 1010.4
20260509225028 75 272 2.0 8.0 0.00 0.00 0.00 40 1010.4
20260509224528 74 249 2.0 6.0 0.00 0.00 0.00 41 1010.4
20260509224027 73 307 2.0 7.0 0.00 0.00 0.00 43 1010.4
20260509223027 73 253 1.0 2.0 0.00 0.00 0.00 46 1010.4
20260509222528 73 250 1.0 6.0 0.00 0.00 0.00 44 1010.3
20260509222028 73 222 1.0 5.0 0.00 0.00 0.00 44 1010.3
20260509221528 73 259 0.0 1.0 0.00 0.00 0.00 44 1010.3
20260509221028 73 209 1.0 7.0 0.00 0.00 0.00 43 1010.4
20260509220028 74 222 1.0 3.0 0.00 0.00 0.00 43 1010.3
20260509215527 74 243 2.0 8.0 0.00 0.00 0.00 43 1010.2
20260509214527 74 272 1.0 3.0 0.00 0.00 0.00 43 1010.2
20260509213527 74 299 0.0 6.0 0.00 0.00 0.00 43 1010.2
20260509213028 74 253 1.0 3.0 0.00 0.00 0.00 43 1010.1
20260509212527 75 353 1.0 3.0 0.00 0.00 0.00 42 1010.0
20260509211527 74 219 1.0 3.0 0.00 0.00 0.00 42 1009.9
20260509211027 74 274 1.0 6.0 0.00 0.00 0.00 42 1009.9
20260509210528 74 284 2.0 5.0 0.00 0.00 0.00 41 1009.9
20260509210027 74 234 2.0 6.0 0.00 0.00 0.00 40 1009.9
20260509205528 74 217 4.0 8.0 0.00 0.00 0.00 39 1009.9
20260509205027 75 230 2.0 7.0 0.00 0.00 0.00 39 1009.8
20260509204528 75 290 0.0 2.0 0.00 0.00 0.00 42 1009.8
20260509204027 75 252 0.0 2.0 0.00 0.00 0.00 40 1009.8
20260509203027 75 279 2.0 8.0 0.00 0.00 0.00 42 1009.8
20260509202527 75 359 1.0 5.0 0.00 0.00 0.00 42 1009.8
20260509202027 74 227 1.0 7.0 0.00 0.00 0.00 41 1009.7
20260509201527 75 255 1.0 5.0 0.00 0.00 0.00 41 1009.7
20260509201027 75 226 1.0 5.0 0.00 0.00 0.00 41 1009.6
20260509200527 75 225 5.0 12.0 0.00 0.00 0.00 40 1009.8
20260509200027 75 265 3.0 7.0 0.00 0.00 0.00 40 1009.7
20260509195527 74 257 3.0 8.0 0.00 0.00 0.00 42 1009.8
20260509195028 74 262 3.0 6.0 0.00 0.00 0.00 41 1009.8
20260509193527 75 282 1.0 3.0 0.00 0.00 0.00 43 1009.7
20260509192527 75 274 1.0 2.0 0.00 0.00 0.00 44 1009.8
20260509192028 74 137 1.0 2.0 0.00 0.00 0.00 44 1009.8
20260509191027 75 233 1.0 3.0 0.00 0.00 0.00 42 1009.9
20260509190528 76 147 1.0 2.0 0.00 0.00 0.00 43 1009.9
20260509190027 75 249 2.0 8.0 0.00 0.00 0.00 41 1010.0
20260509185527 76 262 5.0 9.0 0.00 0.00 0.00 40 1010.1
20260509185028 77 223 1.0 5.0 0.00 0.00 0.00 41 1010.0
20260509184528 75 180 2.0 6.0 0.00 0.00 0.00 46 1010.1
20260509184028 74 272 1.0 3.0 0.00 0.00 0.00 46 1010.1
20260509183527 74 232 1.0 3.0 0.00 0.00 0.00 48 1010.2
20260509182527 74 293 1.0 3.0 0.00 0.00 0.00 50 1010.3
20260509182027 74 343 1.0 2.0 0.00 0.00 0.00 50 1010.3
20260509181528 75 58 1.0 2.0 0.00 0.00 0.00 51 1010.4
20260509181028 74 86 1.0 2.0 0.00 0.00 0.00 51 1010.5
20260509180527 74 160 1.0 2.0 0.00 0.00 0.00 54 1010.6
20260509180026 72 203 1.0 6.0 0.00 0.00 0.00 54 1010.6